Location: Fishcreek Rd Observing Site
(41.1865°N, 81.4271°W)
Time: 07:33:31
(UTC-05:00)

Iridium 75 - Visible Passes

Search period start: 24 February 2017 00:00
Search period end: 06 March 2017 00:00
Orbit: 776 x 779 km, 86.4° (Epoch: 23 February)

Date Brightness Start Highest point End Pass type
(mag) Time Alt. Az. Time Alt. Az. Time Alt. Az.
24 Feb 6.0 19:52:19 10° N 19:57:34 89° W 20:02:47 10° S visible
25 Feb 6.2 19:18:55 10° N 19:24:00 50° E 19:29:03 10° SSE visible
25 Feb 8.6 21:00:45 10° NW 21:04:17 19° W 21:07:47 10° WSW visible
26 Feb 9.3 06:38:49 10° E 06:40:41 12° ENE 06:42:32 10° NE visible
26 Feb 6.9 18:45:52 10° NNE 18:50:18 28° E 18:54:43 10° SE visible
26 Feb 7.7 20:26:23 10° NNW 20:31:01 33° W 20:35:39 10° SSW visible
27 Feb 6.5 19:52:29 10° N 19:57:39 62° W 20:02:46 10° SSW visible
28 Feb 5.9 19:18:55 10° N 19:24:09 73° E 19:29:21 10° S visible
28 Feb 9.1 21:01:55 10° NW 21:04:09 13° WNW 21:06:23 10° WSW visible
01 Mar 6.5 18:45:38 10° NNE 18:50:31 39° E 18:55:23 10° SSE visible
01 Mar 8.4 20:26:54 10° NNW 20:30:59 23° W 20:35:01 10° SW visible
02 Mar 7.3 19:52:46 10° NNW 19:57:40 42° W 20:02:33 10° SSW visible
03 Mar 6.2 19:19:01 10° N 19:24:15 79° W 19:29:27 10° S visible
04 Mar 6.1 18:45:32 10° N 18:50:42 57° E 18:55:49 10° SSE visible
04 Mar 9.0 20:27:43 10° NW 20:30:52 16° WNW 20:34:03 10° WSW visible
05 Mar 9.3 06:04:45 10° ESE 06:07:16 14° ENE 06:09:46 10° NE visible
05 Mar 8.1 19:53:10 10° NNW 19:57:39 29° W 20:02:06 10° SW visible
